Weather Roundup
Issued by NWS

Home | Current Version | Previous Version | Text Only | Print | Product List | Glossary On
Versions: 1 2 3 4 5 6 7 8 9 10 11 12 13 14 15 16 17 18 19 20 21 22 23 24 25 26 27 28 29 30 31 32 33 34 35 36 37 38 39 40 41 42 43 44 45 46 47 48 49 50
000
NZUS93 KARX 180859
HRRWXR

CURRENT HOURLY OBSERVATIONS ACROSS
MUCH OF THE UPPER MISSISSIPPI VALLEY
NATIONAL WEATHER SERVICE LA CROSSE WI
400 AM CDT FRI AUG 18 2017


...SOUTHEAST MINNESOTA...


CITY           SKY/WX    TMP DP  RH WIND       PRES   REMARKS
ROCHESTER      CLEAR     58  58 100 W8        29.89R
ROCHESTER/MAYO FAIR      61  59  94 W8        29.88S
WINONA         CLEAR     64  61  88 W8        29.83S
AUSTIN         CLEAR     61  57  88 CALM      29.88F
ALBERT LEA     CLEAR     63  61  94 CALM      29.90S FOG
DODGE CENTER   CLEAR     57  55  94 W6        29.90R
PRESTON        CLEAR     59  56  91 W6        29.89R
OWATONNA       FOG       55  54  94 SW3       29.89S VSB 3/4
FARIBAULT      CLEAR     57  57 100 CALM      29.88S
$$

...ELSEWHERE IN MINNESOTA...


CITY           SKY/WX    TMP DP  RH WIND       PRES   REMARKS
MINNEAPOLIS    CLEAR     61  57  87 CALM      29.86S
INTNL FALLS    FOG       49  47  93 CALM      29.83R VSB 1/2
DULUTH         CLOUDY    57  57 100 NW6       29.82R
RED WING       CLEAR     61  57  88 CALM      29.85R
REDWOOD FALLS  CLOUDY    61  58  90 CALM      29.88F
MANKATO        CLEAR     60  59  96 CALM      29.90S
WORTHINGTON    CLOUDY    61  59  93 SW6       29.93F
FAIRMONT       CLOUDY    61  59  93 N3        29.90F
$$

...SOUTHWEST WISCONSIN...


CITY           SKY/WX    TMP DP  RH WIND       PRES   REMARKS
LA CROSSE      CLOUDY    69  61  75 N7        29.81F
PRAIRIE DU CHI MOCLDY    65  60  83 W6        29.83R
BOSCOBEL       PTCLDY    66  62  87 SW5       29.82S
LONE ROCK      PTCLDY    64  63  96 W6        29.80S
PLATTEVILLE    CLEAR     63  63 100 W5        29.83S
FORT MC COY    CLOUDY    64  59  81 NW10      29.82R
CAMP DOUGLAS   MOCLDY    64  60  87 W7        29.80R
MAUSTON-NEW LI CLOUDY    65  61  86 NW8       29.79S
VIROQUA        CLOUDY    62  62 100 W3        29.83S
WIS DELLS      CLOUDY    65  60  83 W7        29.79S
$$

...ELSEWHERE IN WISCONSIN...


CITY           SKY/WX    TMP DP  RH WIND       PRES   REMARKS
MILWAUKEE      CLOUDY    69  61  75 W10       29.74R
MADISON        CLOUDY    65  62  90 W5        29.78S
GREEN BAY      CLEAR     62  61  96 W12       29.67S
EAU CLAIRE     NOT AVBL
BLACK RVR FLS  CLOUDY    65  61  87 NW7       29.81R
MEDFORD        CLOUDY    60  58  94 NW8       29.77R
WAUSAU         CLOUDY    62  59  90 NW13      29.73R
WIS RAPIDS     CLOUDY    63  61  93 W12       29.79R
MARSHFIELD     CLOUDY    62  58  86 W10       29.78R
RICE LAKE      CLEAR     58  57  96 W8        29.85R
$$

...NORTHEAST IOWA...


CITY           SKY/WX    TMP DP  RH WIND       PRES   REMARKS
WATERLOO       CLEAR     59  58  96 CALM      29.87S
DUBUQUE        CLEAR     62  60  93 W8        29.84F
DECORAH        CLEAR     61  59  94 VRB5      29.86S
MASON CITY     CLEAR     57  55  93 NW9       29.92R
CHARLES CITY   CLEAR     59  59 100 NW6       29.89S
OELWEIN        CLEAR     61  61 100 NW6       29.88S
$$

...ELSEWHERE IN IOWA...


CITY           SKY/WX    TMP DP  RH WIND       PRES   REMARKS
DES MOINES     PTCLDY    62  59  90 SW3       29.89F
IOWA CITY      CLEAR     63  60  90 W5        29.89S
FORT DODGE     PTCLDY    57  55  94 NW6       29.93R
MARSHALLTOWN   CLEAR     59  59 100 W5        29.88F
CEDAR RAPIDS   CLEAR     59  59 100 NW5       29.87S
$$

...NORTHERN ILLINOIS...


CITY           SKY/WX    TMP DP  RH WIND       PRES   REMARKS
CHICAGO-OHARE  PTCLDY    69  61  75 W12       29.78R
CHICAGO-MIDWAY PTCLDY    70  64  81 W10       29.79R
MOLINE         CLEAR     66  61  84 W6        29.86R
ROCKFORD       PTCLDY    64  62  93 W6        29.82R
PEORIA         CLEAR     67  64  90 W6        29.87R
$$

NOTE: "FAIR" INDICATES FEW OR NO CLOUDS BELOW 12,000 FEET WITH NO
SIGNIFICANT WEATHER AND/OR OBSTRUCTIONS TO VISIBILITY. WIND
SPEEDS ARE IN MILES-PER-HOUR.




USA.gov is the U.S. government's official web portal to all federal, state and local government web resources and services.